Simultaneous Nadir Overpasses (SNOs) Predictions

Prediction of SNOs between AURA and NPP Satellite Orbit:

Table of predicted SNOs for the next 14.0 days since TLE Epoch: 9/4/2020
Index Date (AURA) Time (AURA) Lat,Lon (AURA) SZA (AURA ) Date (NPP) Time (NPP) Lat,Lon (NPP) SZA (NPP ) Distance(km) Time Diff (sec)
1 09/05/2020 19:08:45 -79.22, -32.21 93.59 09/05/2020 19:07:59 -79.21, -32.34 93.53 2.66 46
2 09/05/2020 19:58:02 79.56, 137.70 85.94 09/05/2020 19:58:33 79.56, 137.71 85.92 0.30 31
3 09/08/2020 11:25:11 -79.33, 84.38 92.80 09/08/2020 11:24:52 -79.32, 84.26 92.76 2.51 19
4 09/08/2020 12:14:29 79.62,-105.95 86.80 09/08/2020 12:15:27 79.62,-105.93 86.75 0.43 58
5 09/11/2020 02:52:15 79.22, 31.95 88.30 09/11/2020 02:51:05 79.23, 32.03 88.33 1.80 70
6 09/11/2020 03:41:37 -79.43,-159.05 91.99 09/11/2020 03:41:45 -79.43,-159.14 91.98 1.96 8
7 09/13/2020 19:08:40 79.32, 148.48 89.12 09/13/2020 19:07:57 79.33, 148.60 89.13 2.81 43
8 09/13/2020 19:58:02 -79.53, -42.48 91.17 09/13/2020 19:58:37 -79.53, -42.53 91.18 1.00 35
9 09/16/2020 11:25:08 79.34, -95.52 90.07 09/16/2020 11:24:53 79.34, -95.62 90.10 2.17 15
